TimeCST,TemperatureF,Dew PointF,Humidity,Sea Level PressureIn,VisibilityMPH,Wind Direction,Wind SpeedMPH,Gust SpeedMPH,PrecipitationIn,Events,Conditions,WindDirDegrees,DateUTC
12:53 AM,23.0,19.9,88,30.12,10.0,Calm,Calm,-,N/A,,Clear,0,2012-12-11 06:53:00
1:53 AM,21.9,21.0,96,30.12,10.0,Calm,Calm,-,N/A,,Clear,0,2012-12-11 07:53:00
2:53 AM,21.9,19.0,89,30.13,10.0,Calm,Calm,-,N/A,,Clear,0,2012-12-11 08:53:00
3:53 AM,19.9,18.0,92,30.14,10.0,Calm,Calm,-,N/A,,Clear,0,2012-12-11 09:53:00
4:53 AM,19.9,18.0,92,30.14,10.0,Calm,Calm,-,N/A,,Clear,0,2012-12-11 10:53:00
5:53 AM,19.0,17.1,92,30.17,10.0,Calm,Calm,-,N/A,,Clear,0,2012-12-11 11:53:00
6:53 AM,19.0,17.1,92,30.19,10.0,Calm,Calm,-,N/A,,Clear,0,2012-12-11 12:53:00
7:53 AM,19.0,17.1,92,30.22,10.0,Calm,Calm,-,N/A,,Clear,0,2012-12-11 13:53:00
8:53 AM,25.0,21.9,88,30.23,10.0,Calm,Calm,-,N/A,,Clear,0,2012-12-11 14:53:00
9:25 AM,30.2,21.2,69,30.19,10.0,Calm,Calm,-,N/A,,Partly Cloudy,0,2012-12-11 15:25:00
9:53 AM,32.0,23.0,69,30.25,10.0,Calm,Calm,-,N/A,,Clear,0,2012-12-11 15:53:00
10:53 AM,36.0,19.9,52,30.23,10.0,Calm,Calm,-,N/A,,Clear,0,2012-12-11 16:53:00
11:53 AM,42.1,17.1,37,30.20,10.0,Calm,Calm,-,N/A,,Clear,0,2012-12-11 17:53:00
12:53 PM,45.0,14.0,29,30.18,10.0,Calm,Calm,-,N/A,,Clear,0,2012-12-11 18:53:00
1:53 PM,45.0,10.0,24,30.16,10.0,Calm,Calm,-,N/A,,Clear,0,2012-12-11 19:53:00
2:53 PM,46.0,10.0,23,30.15,10.0,Calm,Calm,-,N/A,,Clear,0,2012-12-11 20:53:00
3:53 PM,46.9,9.0,21,30.17,10.0,Calm,Calm,-,N/A,,Clear,0,2012-12-11 21:53:00
4:53 PM,42.1,14.0,32,30.19,10.0,Calm,Calm,-,N/A,,Clear,0,2012-12-11 22:53:00
5:53 PM,37.0,16.0,42,30.19,10.0,Calm,Calm,-,N/A,,Clear,0,2012-12-11 23:53:00
6:53 PM,32.0,19.9,61,30.20,10.0,Calm,Calm,-,N/A,,Clear,0,2012-12-12 00:53:00
7:53 PM,28.0,21.9,78,30.24,10.0,Calm,Calm,-,N/A,,Clear,0,2012-12-12 01:53:00
8:53 PM,27.0,23.0,85,30.25,10.0,Calm,Calm,-,N/A,,Clear,0,2012-12-12 02:53:00
9:53 PM,26.1,23.0,88,30.26,10.0,Calm,Calm,-,N/A,,Clear,0,2012-12-12 03:53:00
10:53 PM,25.0,21.0,85,30.27,10.0,Calm,Calm,-,N/A,,Clear,0,2012-12-12 04:53:00
11:53 PM,24.1,21.0,88,30.27,10.0,Calm,Calm,-,N/A,,Clear,0,2012-12-12 05:53:00